Find Starlink 33945

NORAD ID: 64154 Int'l Des: 2025-112 Owner: SPXS Country: US Constellation: starlink operational
LEOCIRCULARRETROGRADESSO

現在のビュー

3D地球を読み込み中...

About Starlink 33945

Starlink 33945 (NORAD 64154) is a starlink constellation satellite (v2 mini) launched May 27, 2025 by SPXS of US. It operates in LEO, CIRCULAR, RETROGRADE, SSO orbit with a mass of 575.00 kg.

次回通過

Passes for default location (London). Set your location on the main map for personalized predictions.

高度履歴

Loading altitude history...

軌道要素

1 64154U 25112J 26263.11061075 .00014283 00000-0 44372-3 0 9992
2 64154 97.2851 317.8518 0000745 83.3613 276.7715 15.33458004 73184
Epoch: Sep 20, 2026 • Age: 12 hours

現在のステータス

高度 474.9 km
遠地点 / 近地点 N/A
速度 7.63 km/s
衛星直下点 -24.38°S, 95.99°E
打ち上げ日 May 27, 2025
運用期間 1.3 years
タイプ internet

技術仕様

分類 Payload
質量 575.00 kg
乾燥質量 530.00 kg
長さ 0.30 m
スパン 29.00 m
形状 ? Box + pan
製造者 SPXS
バスタイプ Starlink V2MO
フェーズステータス In Orbit
所有者/国 SPXS/US

Most Searched